TELSTAR 19V (43562 NORAD) Tracking and Keplerian Element Data

This shows tracking and keplerian element data for the satellite.

Feedback or suggestion? Click here.




ElementValue
Catalog43562
NameTELSTAR 19V
Epoch Orbit2172
Epoch Day158.90896634
Epoch Year2024
RAAN230.7009
Inclination0.0071
Eccentricity0.0002312
Argument of Perigee239.023
Mean Anonmoly50.2924
Mean Motion1.00270078
Decay Rate-2.78E-06
L11 43562U 18059A 24158.90896634 -.00000278 00000+0 00000+0 0 9994
L22 43562 0.0071 230.7009 0002312 239.0230 50.2924 1.00270078 21727



Live tracking and technical data element details for TELSTAR 19V (NORAD 43562). TELSTAR 19V can be tracked NOW for your location showing map with azimuth and elevation plus other details from your city location.







IsCatalogInMostPopularTable: catalog: 43562, numindb: 1084
Update: records affected: 1



GetName: 43562 TELSTAR 19V

Hit Count: updated at: Tue, 17 Sep 2024 12:55:48 GMT